Location: Newark
(53.3333°N, 83.7500°E)
Time: 12:54:21
(UTC+00:00)

SR - Pass Details

Date: 12 November 2019
Orbit: 573 x 882 km, 66.7° (Epoch: 15 December)

Event Time Altitude Azimuth Distance (km) Brightness Sun altitude
Rises 11:13:52 0° 209° (SSW) 3,179 ? -6.2°
Reaches altitude 10° 11:16:09 10° 207° (SSW) 2,305 ? -6.5°
Maximum altitude 11:21:27 70° 125° (SE) 870 ? -7.2°
Drops below altitude 10° 11:27:12 10° 43° (NE) 2,495 ? -8.1°
Enters shadow 11:28:10 - 42° (NE) 2,860 ? -8.2°
